Location: Allos
(44.2333°N, 6.6333°E)
Time: 05:15:42
(UTC+00:00)

CENTAUR R/B - Pass Details

Date: 01 December 2020
Orbit: 750 x 1438 km, 63.4° (Epoch: 11 January)

Event Time Altitude Azimuth Distance (km) Brightness Sun altitude
Rises 17:59:01 0° 196° (SSW) 3,339 5.7 -21.4°
Reaches altitude 10° 18:01:22 10° 191° (S) 2,477 4.9 -21.8°
Maximum altitude 18:06:52 50° 117° (ESE) 1,198 2.6 -22.8°
Enters shadow 18:07:44 46° 92° (E) 1,266 2.6 -23.0°
